www.pogodaiklimat.ru

Погода и климат >> Архив погоды >> Белиз >> Белиз


ПОГОДА в Белизе

  • Прогноз погоды в Белизе
  • Монитор погоды в Белизе

АРХИВ ПОГОДЫ в Белизе

Время (UTC), дата Ветер
(напр.,м/с)
 
Видим.   Явления Облачность Т
(С)
Тd
(С)
f
(%)
Тe
(С)
Тes
(С)
Комфортность P
(гПа)
Po
(гПа)
Тmin
(С)
Tmax
(С)
R
(мм)
R24
(мм)
S
(см)
03 14.07 В 4 25 км 8/8 600 м
[Cu med, cong Ci fib]
+28.8 +25.1 80 +42 +42 опасность
перегрева
1013.5 1012.9
06 14.07 В 4 25 км 5/5 660 м
[Cu med, cong]
+28.5 +25.1 82 +41 +41 опасность
перегрева
1013.9 1013.3
09 14.07 В 2 25 км 3/3 600 м
[Cu med, cong]
+27.8 +24.8 84 +40 +40 очень
душно
1012.7 1012.1
12 14.07 В 2 25 км 6/4 600 м
[Cu Sc Ci fib]
+27.4 +24.4 84 +39 +39 очень
душно
1013.3 1012.7 +27.3 +32.5
15 14.07 В 6 25 км 6/6 700 м
[Cu med, cong Ci fib]
+30.6 +25.1 73 +44 +47 опасность
перегрева
1014.6 1014.0
18 14.07 В 5 20 км 5/4 800 м
[Cu med, cong Ci sp]
+32.0 +25.3 68 +46 +53 опасность
перегрева
1014.2 1013.6
21 14.07 В 5 20 км 5/4 750 м
[Cu med, cong Ac trans Ci sp]
+31.6 +25.4 70 +46 +49 опасность
перегрева
1012.8 1012.2
00 15.07 В 4 20 км 8/6 570 м
[Cu med, cong Ci sp]
+30.0 +25.6 77 +44 +44 опасность
перегрева
1013.4 1012.8 +27.3 +32.4
03 15.07 В 3 25 км 5/5 540 м
[Cu med, cong Ci fib]
+25.0 +25.0 100 +36 +36 очень
душно
1014.5 1013.9
06 15.07 В 3 25 км 4/4 540 м
[Cu med, cong]
+28.2 +24.4 80 +40 +40 очень
душно
1014.3 1013.7
09 15.07 В 2 25 км 3/3 540 м
[Cu med, cong]
+27.2 +24.2 84 +38 +38 очень
душно
1012.9 1012.3
12 15.07 ЮВ 2 25 км 4/3 570 м
[Cu med, cong Ci fib]
+27.3 +25.0 87 +39 +39 очень
душно
1013.6 1013.0 +26.9 +32.4
15 15.07 В 4 25 км осадки на расстоянии 8/8 660 м
[Cu med, cong Ci fib]
+30.7 +25.7 75 +46 +47 опасность
перегрева
1014.5 1013.9
18 15.07 В 5 25 км осадки на расстоянии 8/8 360 м
[Cb cap Ci ing]
+31.0 +25.6 73 +46 +48 опасность
перегрева
1014.1 1013.5
21 15.07 В 5 15 км гроза, ливневой дождь 9/6 360 м
[Cu Sc Ci sp]
+31.5 +25.6 71 +46 +48 опасность
перегрева
1013.0 1012.4
00 16.07 В 4 10 км гроза, ливневой дождь 9/9 360 м
[Cb cap Ac trans Ci ing]
+28.0 +23.6 77 +38 +38 очень
душно
1013.8 1013.2 +25.2 +31.6 6
03 16.07 В 2 25 км {гроза, ливн. осадки} 9/6 570 м
[Cu Sc Ac trans Ci sp]
+26.0 +24.9 94 +37 +37 очень
душно
1014.8 1014.2
06 16.07 В 4 25 км зарница {гроза, дождь} 9/6 570 м
[Cu Sc Ac trans Ci sp]
+27.6 +25.4 88 +40 +40 очень
душно
1014.8 1014.2 0.4
09 16.07 В 3 25 км 9/1 540 м
[Cu Sc Ci sp]
+27.3 +24.8 86 +39 +39 очень
душно
1013.3 1012.7
12 16.07 В 3 25 км 9/6 500 м
[Cu Sc Ac trans Ci sp]
+27.5 +25.5 89 +40 +41 очень
душно
1014.0 1013.4 +25.7 +31.6
15 16.07 ЮВ 3 20 км 9/6 630 м
[Cu Sc Ac trans Ci sp]
+29.4 +24.9 77 +42 +45 опасность
перегрева
1015.6 1015.0
18 16.07 В 4 20 км 9/6 700 м
[Cu Sc Ac trans Ci sp]
+30.6 +25.9 76 +46 +49 опасность
перегрева
1015.5 1014.9
21 16.07 В 6 20 км гроза без осадков 9/5 360 м
[Cb cap Ac trans Ci ing]
+30.7 +26.4 78 +47 +48 опасность
перегрева
1014.2 1013.6
00 17.07 В 4 20 км в посл. час гроза {ливн. осадки} 9/4 600 м
[Cu Sc Ac trans Cs]
+28.5 +25.8 85 +42 +42 опасность
перегрева
1014.1 1013.5 +25.7 +31.5 3
03 17.07 В 3 20 км 4/3 570 м
[Cu med, cong Ci sp]
+28.2 +25.2 84 +41 +41 опасность
перегрева
1015.7 1015.1
06 17.07 В 4 20 км 9/6 600 м
[Cu med, cong Ci sp]
+28.3 +25.2 83 +41 +41 опасность
перегрева
1015.8 1015.2
09 17.07 В 3 25 км 9/3 600 м
[Cu hum Ci fib]
+27.7 +24.8 84 +39 +39 очень
душно
1014.4 1013.8
12 17.07 В 3 25 км 8/5 570 м
[Cu Sc Ci sp]
+28.0 +25.3 85 +41 +41 опасность
перегрева
1014.9 1014.3 +27.6 +31.5
15 17.07 В 7 20 км осадки на расстоянии 9/9 450 м
[Cu Sc Ac trans Ci sp]
+30.0 +25.6 77 +44 +45 опасность
перегрева
1016.3 1015.7
18 17.07 В 6 20 км осадки на расстоянии {гроза, ливн. осадки} 9/8 660 м
[Cu Sc Ac trans Ci ing]
+30.5 +25.5 75 +45 +46 опасность
перегрева
1016.0 1015.4 3
21 17.07 СВ 6 22 км {ливн. осадки} 9/3 700 м
[Cu Sc Ac trans Cs]
+30.0 +25.4 76 +44 +46 опасность
перегрева
1014.5 1013.9
00 18.07 В 4 20 км слаб. ливневой дождь 9/4 630 м
[Cu Sc Ac trans Ci sp]
+29.4 +25.8 81 +44 +44 опасность
перегрева
1013.8 1013.2 +25.8 +31.3 0.5
03 18.07 В 5 20 км гроза без осадков {ливн. осадки} 8/5 600 м
[Cu Sc Ci sp]
+29.0 +25.1 80 +42 +42 опасность
перегрева
1014.7 1014.1
06 18.07 В 4 20 км 8/4 570 м
[Cu Sc Ci sp]
+28.4 +25.1 82 +41 +41 опасность
перегрева
1015.0 1014.4
09 18.07 В 3 20 км 6/4 570 м
[Cu med, cong Ci sp]
+28.1 +24.8 82 +40 +40 очень
душно
1014.0 1013.4
12 18.07 В 4 20 км 6/4 630 м
[Cu Sc Ci sp]
+27.9 +24.0 79 +39 +39 очень
душно
1015.1 1014.5 +27.5 +31.3
15 18.07 В 5 20 км 6/1 700 м
[Cu Sc Ci fib]
+30.2 +24.5 72 +43 +49 опасность
перегрева
1016.7 1016.1
18 18.07 В 4 15 км слаб. ливневой дождь 9/9 660 м
[Cu med, cong Ac trans Ci fib]
+30.4 +25.4 75 +45 +46 опасность
перегрева
1016.2 1015.6
21 18.07 В 5 20 км {ливн. осадки} 6/4 800 м
[Cu med, cong Ac trans Ci sp]
+31.5 +24.7 67 +44 +47 опасность
перегрева
1014.2 1013.6
00 19.07 В 3 25 км {ливн. осадки} 5/3 700 м
[Cu Sc Ac trans Ci sp]
+29.6 +24.7 75 +42 +42 опасность
перегрева
1014.3 1013.7 +26.3 +31.6 0.2
03 19.07 В 3 25 км 5/4 630 м
[Cu med, cong Ci fib]
+28.4 +24.6 80 +40 +40 очень
душно
1015.2 1014.6
06 19.07 В 3 25 км 5/5 600 м
[Cu med, cong]
+28.1 +25.3 85 +41 +41 опасность
перегрева
1014.6 1014.0
09 19.07 В 3 25 км 1/1 600 м
[Cu hum]
+27.4 +25.2 88 +40 +40 очень
душно
1013.3 1012.7
12 19.07 В 2 25 км 8/3 570 м
[Cu med, cong Ci fib]
+27.4 +24.8 86 +39 +39 очень
душно
1014.1 1013.5 +27.0 +31.6
15 19.07 В 4 25 км 6/5 630 м
[Cu Sc Ci fib]
+30.5 +25.5 75 +45 +49 опасность
перегрева
1015.2 1014.6
18 19.07 В 6 25 км 8/5 840 м
[Cu Sc Ac trans Ci fib]
+31.5 +25.5 71 +46 +50 опасность
перегрева
1015.1 1014.5
21 19.07 В 5 25 км 8/3 750 м
[Cu Sc Ac trans Ci sp]
+31.5 +26.2 74 +48 +51 опасность
перегрева
1013.3 1012.7
00 20.07 В 3 25 км 9/3 630 м
[Cu med, cong Ac trans Ci ing]
+29.7 +25.0 76 +43 +43 опасность
перегрева
1013.8 1013.2 +27.0 +32.2
03 20.07 В 4 25 км 9/4 600 м
[Cu med, cong Ac trans Ci sp]
+29.0 +24.4 76 +41 +41 опасность
перегрева
1015.1 1014.5
06 20.07 В 3 25 км 5/4 600 м
[Cu Sc Ac trans Ci fib]
+28.5 +25.1 82 +41 +41 опасность
перегрева
1013.6 1013.0
09 20.07 ЮВ 1 25 км зарница 9/1 570 м
[Cu med, cong Cs]
+25.9 +23.0 84 +35 +35 очень
душно
1012.5 1011.9
12 20.07 В 2 25 км 9/3 360 м
[Cu med, cong Ci sp]
+26.6 +25.2 92 +38 +39 очень
душно
1013.7 1013.1 +25.8 +32.2
15 20.07 ЮВ 2 12 км гроза, ливневой дождь 9/4 300 м
[Cb cap Ci sp]
+24.1 +24.0 99 +33 +39 очень
душно
1015.8 1015.2
18 20.07 ЮВ 2 18 км {гроза, ливн. осадки} 9/5
[Cu Sc Ac As Ci sp]
+25.4 +23.9 91 +35 +41 очень
душно
1015.5 1014.9 18
21 20.07 СВ 4 15 км в посл. час гроза 9/9 300 м
[Cb cap Ac trans Cs]
+27.2 +25.0 88 +39 +40 очень
душно
1013.4 1012.8

 

Местоположение метеостанции Белиз (Белиз): широта 17.53 долгота -88.30 высота над уровнем моря 5 м.

В архиве по умолчанию представлена погода в Белизе за последнюю неделю. Архивные данные за месяц целиком и за предыдущие месяцы, начиная с января 2011 года, Вы можете получить, выбрав интересующий диапазон дат из раскрывающегося списка и нажав кнопку "Ввод!".


*Определитесь, кто Вы:
робот инопланетянин человек

Внимание! Время в таблицах - всемирное. Для получения местного времени необходимо прибавить поправку, которая равна -4 ч.

Смотрите также архив погоды в соседних городах и на ближайших метеорологических станциях:

Погода в Четумале (Мексика) (106 км)
Погода во Флоресе (Гватемала) (181 км)
Погода в Пуэрто-Барриосе (Гватемала) (204 км)
Погода в Теле (Гондурас) (219 км)
Погода на Роатане (Гондурас) (233 км)
Погода в Ла-Лиме (Гондурас) (235 км)
Погода в Фелипе-Каррильо-Пуэрто (Мексика) (245 км)
Погода в Ла-Сейбе (Гондурас) (252 км)
Погода в Йоро (Гондурас) (292 км)
Погода в Трухильо (Гондурас) (309 км)

Пояснения к столбцам:

Ветер - указаны скорость ветра в м/с - средняя за 10 мин, порывы в срок и между сроками (в фигурных скобках) и направление, откуда дует ветер: С - северный, СВ - северо-восточный, В - восточный, ЮВ - юго-восточный, Ю - южный, ЮЗ - юго-западный, З - западный, СЗ - северо-западный.
Видимость - горизонтальная дальность видимости в метрах или километрах. При видимости от 1 до 10 км при отсутствии осадков обычно наблюдается дымка, при ухудшении видимости до 1 км и менее - туман. В сухую погоду видимость может ухудшаться дымом, пылью или мглою.
Явления - указаны атмосферные явления, наблюдавшиеся в срок или в последний час перед сроком; фигурными скобками обозначены явления, наблюдавшиеся между сроками (за 1-3 часа до срока); квадратными скобками обозначены град или гололедные отложения с указанием их диаметра в мм.
Облачность - указаны через наклонную черту общая и нижняя облачность в баллах и высота нижней границы облаков в метрах; квадратными скобками обозначены формы облаков: Ci - перистые, Cs - перисто-слоистые, Cc - перисто-кучевые, Ac - высококучевые, As - высокослоистые, Sc - слоисто-кучевые, Ns - слоисто-дождевые, Cu - кучевые, Cb - кучево-дождевые. Подробнее классификацию облаков см. в Атласе облаков (PDF).
T - Температура воздуха - температура, измеренная на высоте 2 м над землей.
Td - Температура точки росы - температура, при понижении до которой содержащийся в воздухе водяной пар достигнет насыщения.
f - Относительная влажность воздуха - влажноcть воздуха, измеренная на высоте 2 м над землей.
Te - Эффективная температура - температура, которую ощущает одетый по сезону человек в тени. Характеристика душности погоды. При расчете учитывается влияние влажности воздуха и скорости ветра на теплоощущения человека.
Tes - Эффективная температура на солнце - температура, которую ощущает человек, с поправкой на солнечный нагрев. Характеристика знойности погоды. Зависит от высоты солнца над горизонтом, облачности и скорости ветра. Ночью, в пасмурную погоду, а также при ветре 12 м/с и более поправка равна нулю.
P - Атмосферное давление - приведенное к уровню моря атмосферное давление.
Po - Атмосферное давление - измеренное на уровне метеостанции атмосферное давление.
Tmin - Минимальная температура - минимум температуры воздуха на высоте 2 м над землей.
Tmax - Максимальная температура - максимум температуры воздуха на высоте 2 м над землей.
R - Количество осадков - Количество выпавших осадков за период времени, мм. При наведении курсора мыши на число - период времени, за который выпало указанное количество осадков.
R24 - Количество осадков - Количество выпавших осадков за 24 часа, мм.
S - Снежный покров - Высота снежного покрова, см. При наведении курсора мыши на число - состояние снежного покрова и степень покрытия местности в баллах.